Starlink 34216

operational
NORAD ID: 64337 Int'l Des: 2025-124 Owner: SPXS Country: US Constellation: starlink
LEOCIRCULAR

关于 Starlink 34216

正在加载描述...

实时位置

正在加载3D地球...

即将过境

高度历史

Altitude vs Time

uPlot chart will show altitude changes over time

两行轨道根数

1 64337U 25124W 25260.47544980 .00029630 00000-0 10813-2 0 9998
2 64337 42.9943 19.5691 0001012 127.9789 232.1155 15.27597829 15295
Epoch: Sep 17, 2025 • Age: 37 hours

当前状态

高度 496.4 km
速度 7.62 km/s
星下点 -42.95°S, 93.99°W
发射日期 Jun 10, 2025
运行时间 0.2 years
类型 internet

技术详情

分类 Payload
质量 575.00 kg
干质量 530.00 kg
总质量 575.00 kg
长度 0.30 m
直径 4.10 m
跨度 29.00 m
形状 Box + pan
制造商 SPXS
平台类型 Starlink V2MO
阶段状态 In Orbit
所有者/国家 SPXS/US

大型星座

Loading constellations...